Regional Weather Roundup
Issued by NWS

Home | Current Version | Previous Version | Graphics & Text | Print | Product List | Glossary On
Versions: 1 2 3 4 5 6 7 8 9 10 11 12 13 14 15 16 17 18 19 20 21 22 23 24 25 26 27 28 29 30 31 32 33 34 35 36 37 38 39 40 41 42 43 44 45 46 47 48 49 50
520
ASUS45 KCYS 260410
RWRWY

WYOMING REGIONAL WEATHER ROUNDUP
NATIONAL WEATHER SERVICE CHEYENNE WY
1000 PM MDT SAT MAR 25 2017

NOTE:  "FAIR" INDICATES FEW OR NO CLOUDS BELOW 12,000 FEET
WITH NO SIGNIFICANT WEATHER AND/OR OBSTRUCTIONS TO VISIBILITY.

WYZ001-260500-
YELLOWSTONE NATIONAL PARK

CITY           SKY/WX    TMP DP  RH WIND       PRES   REMARKS
LK YELLOWSTONE   N/A     24  20  84 CALM      29.99R
W YELLOWSTONE  NOT AVBL

$$
WYZ002>013-054>058-071-098>099-260500-
NORTHERN WYOMING

CITY           SKY/WX    TMP DP  RH WIND       PRES   REMARKS
JACKSON        FAIR      34  25  69 W7        29.98S WCI  28
CODY           MOCLDY    41  29  62 W3        29.95S
GREYBULL       CLOUDY    44  41  89 CALM      29.91R
WORLAND        CLOUDY    43  42  97 CALM      29.92R
SHERIDAN       LGT RAIN  40  37  89 W8        29.95S WCI  34
BUFFALO        LGT RAIN  38  35  89 NW10      29.94R WCI  31
GILLETTE       CLOUDY    45  33  63 N12       29.89R
HULETT         CLOUDY    46  32  57 NE8       29.88F
NEWCASTLE      FAIR      52  28  40 S9G21     29.82S

$$
WYZ014>020-022>026-101>103-260500-
CENTRAL WYOMING

CITY           SKY/WX    TMP DP  RH WIND       PRES   REMARKS
BIG PINEY      CLOUDY    32  27  81 N14       29.95S WCI  22
PINEDALE       CLOUDY    32  32 100 NW9       29.95S WCI  24
DUBOIS         FAIR      34  27  75 W13       29.92S WCI  25
LANDER         LGT RAIN  41  35  79 W8        29.90R
RIVERTON       LGT RAIN  40  38  93 N14       29.90R WCI  32
CASPER         CLOUDY    44  37  76 N13       29.88R
DOUGLAS        CLOUDY    47  32  56 CALM      29.84F

$$
WYZ021-027>030-104>119-260500-
SOUTHERN WYOMING

CITY           SKY/WX    TMP DP  RH WIND       PRES   REMARKS
EVANSTON       CLOUDY    33  30  88 W6        30.00R WCI  28
KEMMERER         N/A     32  28  86 W12       29.98R WCI  23
FORT BRIDGER   CLOUDY    35  34  97 W10       30.02R WCI  27
ROCK SPRINGS   CLOUDY    37  34  89 SW13      29.93S WCI  29
DIXON            N/A     46  32  57 SW10      29.94R
RAWLINS        CLOUDY    44  32  62 SW3       29.90S
SARATOGA       LGT RAIN  39  39 100 NE5       29.92S
LARAMIE        CLOUDY    44  24  45 SE14      29.86F
CHEYENNE       CLOUDY    48  28  46 S8        29.85F
TORRINGTON     FAIR      54  29  38 SE8       29.80S
PINE BLUFFS    FAIR      45  30  57 S12G18    29.86S

$$




USA.gov is the U.S. government's official web portal to all federal, state and local government web resources and services.